Tracking 25734 objects as of 27-May-2022
HD Live streaming from Space Station
objects crossing your sky now

COSMOS 1823 DEB

Track COSMOS 1823 DEB now!
10-day predictions


NORAD ID: 29357
Int'l Code: 1987-020DY
Perigee: 1,157.8 km
Apogee: 1,497.0 km
Inclination: 73.8 °
Period: 112.0 minutes
Semi major axis: 7698 km
RCS: 0.003 m2 (small)
Launch date: February 20, 1987
Source: Commonwealth of Independent States (former USSR) (CIS)
Launch site: PLESETSK MISSILE AND SPACE COMPLEX (PKMTR)

Note: This is SATELLITE DEBRIS
aabbcc
Your satellite tracking list
Your tracking list is empty




NASA's NSSDC Master Catalog

Two Line Element Set (TLE):
1 29357U 87020DY  22146.62731294 -.00000003  00000-0  62426-4 0  9990
2 29357  73.7923  86.5824 0220306 328.1878 208.7197 12.85305092411759
Source of the keplerian elements: AFSPC